Time,TemperatureF,DewpointF,PressureIn,WindDirection,WindDirectionDegrees,WindSpeedMPH,WindSpeedGustMPH,Humidity,HourlyPrecipIn,Conditions,Clouds,dailyrainin,SoftwareType,DateUTC
2013-04-23 00:02:00,37.9,31.7,30.52,South,169,0.0,0.0,78,0.00,,---,0.00,VWS V14.01,2013-04-23 04:02:00,
2013-04-23 00:03:00,37.9,31.7,30.52,South,170,0.0,0.0,78,0.00,,---,0.00,VWS V14.01,2013-04-23 04:03:00,
2013-04-23 00:04:00,37.9,31.7,30.52,South,170,0.0,0.0,78,0.00,,---,0.00,VWS V14.01,2013-04-23 04:04:00,
2013-04-23 00:05:00,37.9,31.4,30.52,South,170,0.0,0.0,77,0.00,,---,0.00,VWS V14.01,2013-04-23 04:05:00,
2013-04-23 00:08:00,37.8,31.6,30.52,South,170,0.0,0.0,78,0.00,,---,0.00,VWS V14.01,2013-04-23 04:08:00,
2013-04-23 00:13:00,37.8,31.6,30.52,South,170,0.0,0.0,78,0.00,,---,0.00,VWS V14.01,2013-04-23 04:13:00,
2013-04-23 00:18:00,37.6,31.4,30.51,South,170,0.0,0.0,78,0.00,,---,0.00,VWS V14.01,2013-04-23 04:18:00,
2013-04-23 00:23:00,37.6,31.7,30.52,South,169,0.0,0.0,79,0.00,,---,0.00,VWS V14.01,2013-04-23 04:23:00,
2013-04-23 00:28:00,37.5,31.6,30.52,SSE,161,0.0,0.0,79,0.00,,---,0.00,VWS V14.01,2013-04-23 04:28:00,
2013-04-23 00:33:00,37.5,31.3,30.51,North,9,0.0,0.0,78,0.00,,---,0.00,VWS V14.01,2013-04-23 04:33:00,
2013-04-23 00:39:00,37.5,30.3,30.51,SSW,213,0.0,1.0,75,0.00,,---,0.00,VWS V14.01,2013-04-23 04:39:00,
2013-04-23 00:44:00,37.6,29.7,30.51,North,10,0.0,0.0,73,0.00,,---,0.00,VWS V14.01,2013-04-23 04:44:00,
2013-04-23 00:49:00,37.6,29.1,30.51,NNE,22,0.0,1.0,71,0.00,,---,0.00,VWS V14.01,2013-04-23 04:49:00,
2013-04-23 00:54:00,37.8,28.9,30.51,North,9,0.0,0.0,70,0.00,,---,0.00,VWS V14.01,2013-04-23 04:54:00,
2013-04-23 01:00:00,37.9,28.3,30.50,NE,42,0.0,3.0,68,0.00,,---,0.00,VWS V14.01,2013-04-23 05:00:00,
2013-04-23 01:05:00,38.0,28.0,30.50,NW,315,0.0,0.0,67,0.00,,---,0.00,VWS V14.01,2013-04-23 05:05:00,
2013-04-23 01:11:00,38.0,27.7,30.50,ESE,122,0.0,3.0,66,0.00,,---,0.00,VWS V14.01,2013-04-23 05:11:00,
2013-04-23 01:16:00,38.2,27.9,30.50,NNW,333,0.0,3.0,66,0.00,,---,0.00,VWS V14.01,2013-04-23 05:16:00,
2013-04-23 01:22:00,38.2,27.9,30.50,NNW,333,0.0,0.0,66,0.00,,---,0.00,VWS V14.01,2013-04-23 05:22:00,
2013-04-23 01:27:00,38.2,27.9,30.50,NNE,22,0.0,0.0,66,0.00,,---,0.00,VWS V14.01,2013-04-23 05:27:00,
2013-04-23 01:32:00,38.2,27.9,30.50,NNE,22,0.0,0.0,66,0.00,,---,0.00,VWS V14.01,2013-04-23 05:32:00,
2013-04-23 01:37:00,38.0,28.0,30.50,WNW,289,0.0,0.0,67,0.00,,---,0.00,VWS V14.01,2013-04-23 05:37:00,
2013-04-23 01:42:00,37.9,27.9,30.49,SSW,194,0.0,0.0,67,0.00,,---,0.00,VWS V14.01,2013-04-23 05:42:00,
2013-04-23 01:47:00,37.8,28.2,30.49,SSW,194,0.0,0.0,68,0.00,,---,0.00,VWS V14.01,2013-04-23 05:47:00,
2013-04-23 01:52:00,37.6,28.0,30.49,SSW,194,0.0,0.0,68,0.00,,---,0.00,VWS V14.01,2013-04-23 05:52:00,
2013-04-23 01:58:00,37.5,28.3,30.48,WSW,238,0.0,0.0,69,0.00,,---,0.00,VWS V14.01,2013-04-23 05:58:00,
2013-04-23 02:03:00,37.3,28.4,30.48,NNW,346,0.0,4.0,70,0.00,,---,0.00,VWS V14.01,2013-04-23 06:03:00,
2013-04-23 02:08:00,37.2,28.3,30.48,NNW,346,0.0,0.0,70,0.00,,---,0.00,VWS V14.01,2013-04-23 06:08:00,
2013-04-23 02:13:00,37.2,28.7,30.48,SE,134,0.0,4.0,71,0.00,,---,0.00,VWS V14.01,2013-04-23 06:13:00,
2013-04-23 02:19:00,37.0,28.5,30.48,NNE,12,0.0,2.0,71,0.00,,---,0.00,VWS V14.01,2013-04-23 06:19:00,
2013-04-23 02:24:00,37.0,28.5,30.48,SW,233,0.0,0.0,71,0.00,,---,0.00,VWS V14.01,2013-04-23 06:24:00,
2013-04-23 02:30:00,37.0,28.5,30.48,North,5,0.0,0.0,71,0.00,,---,0.00,VWS V14.01,2013-04-23 06:30:00,
2013-04-23 02:35:00,37.0,28.5,30.47,North,5,0.0,0.0,71,0.00,,---,0.00,VWS V14.01,2013-04-23 06:35:00,
2013-04-23 02:40:00,37.0,28.5,30.47,NE,46,0.0,0.0,71,0.00,,---,0.00,VWS V14.01,2013-04-23 06:40:00,
2013-04-23 02:46:00,36.9,28.4,30.47,NE,38,0.0,2.0,71,0.00,,---,0.00,VWS V14.01,2013-04-23 06:46:00,
2013-04-23 02:51:00,36.9,28.4,30.47,NW,316,0.0,0.0,71,0.00,,---,0.00,VWS V14.01,2013-04-23 06:51:00,
2013-04-23 02:56:00,36.9,28.4,30.47,NNE,14,0.0,0.0,71,0.00,,---,0.00,VWS V14.01,2013-04-23 06:56:00,
2013-04-23 03:02:00,36.8,28.3,30.46,NW,323,0.0,0.0,71,0.00,,---,0.00,VWS V14.01,2013-04-23 07:02:00,
2013-04-23 03:07:00,36.6,28.1,30.46,NW,323,0.0,0.0,71,0.00,,---,0.00,VWS V14.01,2013-04-23 07:07:00,
2013-04-23 03:12:00,36.5,28.0,30.46,North,5,1.0,4.0,71,0.00,,---,0.00,VWS V14.01,2013-04-23 07:12:00,
2013-04-23 03:18:00,36.3,27.8,30.45,North,5,0.0,0.0,71,0.00,,---,0.00,VWS V14.01,2013-04-23 07:18:00,
2013-04-23 03:23:00,36.3,27.8,30.45,North,5,0.0,0.0,71,0.00,,---,0.00,VWS V14.01,2013-04-23 07:23:00,
2013-04-23 03:28:00,36.2,27.7,30.45,North,5,0.0,0.0,71,0.00,,---,0.00,VWS V14.01,2013-04-23 07:28:00,
2013-04-23 03:34:00,36.0,27.5,30.45,NNE,15,0.0,0.0,71,0.00,,---,0.00,VWS V14.01,2013-04-23 07:34:00,
2013-04-23 03:39:00,35.9,27.8,30.45,NNE,15,0.0,0.0,72,0.00,,---,0.00,VWS V14.01,2013-04-23 07:39:00,
2013-04-23 03:44:00,35.8,27.7,30.45,NNW,338,0.0,0.0,72,0.00,,---,0.00,VWS V14.01,2013-04-23 07:44:00,
2013-04-23 03:49:00,35.8,27.7,30.44,NNW,336,0.0,0.0,72,0.00,,---,0.00,VWS V14.01,2013-04-23 07:49:00,
2013-04-23 03:54:00,35.6,27.8,30.44,NNW,336,0.0,0.0,73,0.00,,---,0.00,VWS V14.01,2013-04-23 07:54:00,
2013-04-23 03:59:00,35.5,27.7,30.44,NNW,336,0.0,0.0,73,0.00,,---,0.00,VWS V14.01,2013-04-23 07:59:00,
2013-04-23 04:04:00,35.3,27.5,30.44,NNW,336,0.0,0.0,73,0.00,,---,0.00,VWS V14.01,2013-04-23 08:04:00,
2013-04-23 04:09:00,35.3,27.5,30.44,NNW,343,0.0,0.0,73,0.00,,---,0.00,VWS V14.01,2013-04-23 08:09:00,
2013-04-23 04:15:00,35.5,27.7,30.44,NW,322,0.0,0.0,73,0.00,,---,0.00,VWS V14.01,2013-04-23 08:15:00,
2013-04-23 04:21:00,35.6,28.1,30.44,North,355,0.0,3.0,74,0.00,,---,0.00,VWS V14.01,2013-04-23 08:21:00,
2013-04-23 04:27:00,35.8,28.0,30.43,NNW,339,0.0,2.0,73,0.00,,---,0.00,VWS V14.01,2013-04-23 08:27:00,
2013-04-23 04:32:00,35.9,28.1,30.43,WSW,257,0.0,0.0,73,0.00,,---,0.00,VWS V14.01,2013-04-23 08:32:00,
2013-04-23 04:37:00,36.2,28.4,30.43,WNW,300,0.0,2.0,73,0.00,,---,0.00,VWS V14.01,2013-04-23 08:37:00,
2013-04-23 04:43:00,36.3,28.5,30.43,North,360,0.0,0.0,73,0.00,,---,0.00,VWS V14.01,2013-04-23 08:43:00,
2013-04-23 04:48:00,36.3,28.1,30.43,NW,321,0.0,2.0,72,0.00,,---,0.00,VWS V14.01,2013-04-23 08:48:00,
2013-04-23 04:53:00,36.5,28.4,30.43,NNW,348,0.0,1.0,72,0.00,,---,0.00,VWS V14.01,2013-04-23 08:53:00,
2013-04-23 04:59:00,36.6,28.1,30.43,NW,322,0.0,2.0,71,0.00,,---,0.00,VWS V14.01,2013-04-23 08:59:00,
2013-04-23 05:04:00,36.8,28.3,30.43,NNE,15,0.0,2.0,71,0.00,,---,0.00,VWS V14.01,2013-04-23 09:04:00,
2013-04-23 05:09:00,36.8,28.3,30.42,NE,34,1.0,2.0,71,0.00,,---,0.00,VWS V14.01,2013-04-23 09:09:00,
2013-04-23 05:14:00,36.9,28.4,30.42,NE,42,0.0,2.0,71,0.00,,---,0.00,VWS V14.01,2013-04-23 09:14:00,
2013-04-23 05:19:00,36.9,28.4,30.42,NW,319,0.0,0.0,71,0.00,,---,0.00,VWS V14.01,2013-04-23 09:19:00,
2013-04-23 05:24:00,37.0,28.5,30.42,NW,323,0.0,0.0,71,0.00,,---,0.00,VWS V14.01,2013-04-23 09:24:00,
2013-04-23 05:29:00,37.0,28.5,30.42,NNW,339,0.0,1.0,71,0.00,,---,0.00,VWS V14.01,2013-04-23 09:29:00,
2013-04-23 05:34:00,37.2,28.7,30.42,North,355,3.0,3.0,71,0.00,,---,0.00,VWS V14.01,2013-04-23 09:34:00,
2013-04-23 05:40:00,37.2,28.7,30.42,North,355,2.0,2.0,71,0.00,,---,0.00,VWS V14.01,2013-04-23 09:40:00,
2013-04-23 05:45:00,37.3,28.8,30.42,North,355,0.0,2.0,71,0.00,,---,0.00,VWS V14.01,2013-04-23 09:45:00,
2013-04-23 05:50:00,37.3,28.8,30.42,NNE,12,0.0,3.0,71,0.00,,---,0.00,VWS V14.01,2013-04-23 09:50:00,
2013-04-23 05:56:00,37.3,28.8,30.42,NW,323,1.0,2.0,71,0.00,,---,0.00,VWS V14.01,2013-04-23 09:56:00,
2013-04-23 06:01:00,37.5,29.0,30.42,East,84,0.0,0.0,71,0.00,,---,0.00,VWS V14.01,2013-04-23 10:01:00,
2013-04-23 06:06:00,37.5,29.0,30.42,NNE,15,0.0,3.0,71,0.00,,---,0.00,VWS V14.01,2013-04-23 10:06:00,
2013-04-23 06:11:00,37.5,29.0,30.42,ENE,78,0.0,2.0,71,0.00,,---,0.00,VWS V14.01,2013-04-23 10:11:00,
2013-04-23 06:16:00,37.6,29.1,30.42,North,5,1.0,1.0,71,0.00,,---,0.00,VWS V14.01,2013-04-23 10:16:00,
2013-04-23 06:22:00,37.6,29.1,30.42,NNE,21,1.0,1.0,71,0.00,,---,0.00,VWS V14.01,2013-04-23 10:22:00,
2013-04-23 06:27:00,37.6,29.1,30.41,NNE,30,0.0,5.0,71,0.00,,---,0.00,VWS V14.01,2013-04-23 10:27:00,
2013-04-23 06:32:00,37.6,29.1,30.41,North,350,2.0,4.0,71,0.00,,---,0.00,VWS V14.01,2013-04-23 10:32:00,
2013-04-23 06:37:00,37.6,29.4,30.41,NNE,25,4.0,4.0,72,0.00,,---,0.00,VWS V14.01,2013-04-23 10:37:00,
2013-04-23 06:42:00,37.6,29.4,30.41,NNW,344,0.0,1.0,72,0.00,,---,0.00,VWS V14.01,2013-04-23 10:42:00,
2013-04-23 06:47:00,37.8,29.6,30.41,WNW,297,1.0,3.0,72,0.00,,---,0.00,VWS V14.01,2013-04-23 10:47:00,
2013-04-23 06:52:00,37.8,29.6,30.41,NE,42,1.0,4.0,72,0.00,,---,0.00,VWS V14.01,2013-04-23 10:52:00,
2013-04-23 06:57:00,37.8,29.6,30.41,NNE,15,0.0,3.0,72,0.00,,---,0.00,VWS V14.01,2013-04-23 10:57:00,
2013-04-23 07:03:00,37.8,29.6,30.41,NNW,347,0.0,1.0,72,0.00,,---,0.00,VWS V14.01,2013-04-23 11:03:00,
2013-04-23 07:08:00,37.9,29.7,30.41,NNW,333,0.0,3.0,72,0.00,,---,0.00,VWS V14.01,2013-04-23 11:08:00,
2013-04-23 07:13:00,37.9,29.7,30.41,North,355,0.0,2.0,72,0.00,,---,0.00,VWS V14.01,2013-04-23 11:13:00,
2013-04-23 07:18:00,37.9,29.7,30.41,NNW,338,0.0,2.0,72,0.00,,---,0.00,VWS V14.01,2013-04-23 11:18:00,
2013-04-23 07:23:00,37.9,29.7,30.41,NNW,340,0.0,1.0,72,0.00,,---,0.00,VWS V14.01,2013-04-23 11:23:00,
2013-04-23 07:28:00,38.0,29.8,30.41,NNW,329,3.0,3.0,72,0.00,,---,0.00,VWS V14.01,2013-04-23 11:28:00,
2013-04-23 07:33:00,38.0,29.8,30.41,WNW,293,0.0,1.0,72,0.00,,---,0.00,VWS V14.01,2013-04-23 11:33:00,
2013-04-23 07:38:00,38.2,30.0,30.41,North,360,0.0,6.0,72,0.00,,---,0.00,VWS V14.01,2013-04-23 11:38:00,
2013-04-23 07:43:00,38.2,30.0,30.41,NW,322,0.0,0.0,72,0.00,,---,0.00,VWS V14.01,2013-04-23 11:43:00,
2013-04-23 07:49:00,38.2,31.0,30.41,NW,323,1.0,4.0,75,0.00,,---,0.00,VWS V14.01,2013-04-23 11:49:00,
2013-04-23 07:54:00,38.3,30.4,30.41,WNW,296,0.0,0.0,73,0.00,,---,0.00,VWS V14.01,2013-04-23 11:54:00,
2013-04-23 07:59:00,38.3,30.4,30.41,NNW,331,0.0,1.0,73,0.00,,---,0.00,VWS V14.01,2013-04-23 11:59:00,
2013-04-23 08:04:00,38.3,31.7,30.40,NNE,12,0.0,4.0,77,0.00,,---,0.00,VWS V14.01,2013-04-23 12:04:00,
2013-04-23 08:09:00,38.3,30.4,30.40,ENE,67,0.0,2.0,73,0.00,,---,0.00,VWS V14.01,2013-04-23 12:09:00,
2013-04-23 08:15:00,38.5,30.6,30.40,NNW,335,0.0,2.0,73,0.00,,---,0.00,VWS V14.01,2013-04-23 12:15:00,
2013-04-23 08:20:00,38.6,30.7,30.40,North,351,0.0,3.0,73,0.00,,---,0.00,VWS V14.01,2013-04-23 12:20:00,
2013-04-23 08:25:00,38.6,30.7,30.40,North,350,1.0,4.0,73,0.00,,---,0.00,VWS V14.01,2013-04-23 12:25:00,
2013-04-23 08:31:00,38.8,30.9,30.39,NNE,26,1.0,3.0,73,0.00,,---,0.00,VWS V14.01,2013-04-23 12:31:00,
2013-04-23 08:36:00,38.9,31.3,30.39,North,360,0.0,4.0,74,0.00,,---,0.00,VWS V14.01,2013-04-23 12:36:00,
2013-04-23 08:41:00,39.1,31.5,30.39,NW,318,0.0,0.0,74,0.00,,---,0.00,VWS V14.01,2013-04-23 12:41:00,
2013-04-23 08:47:00,39.1,32.5,30.39,North,5,5.0,5.0,77,0.00,,---,0.00,VWS V14.01,2013-04-23 12:47:00,
2013-04-23 08:52:00,39.1,32.8,30.39,NE,34,0.0,0.0,78,0.00,,---,0.00,VWS V14.01,2013-04-23 12:52:00,
2013-04-23 08:57:00,39.1,33.2,30.39,NW,323,0.0,0.0,79,0.00,,---,0.00,VWS V14.01,2013-04-23 12:57:00,
2013-04-23 09:02:00,39.1,33.2,30.39,NW,315,3.0,4.0,79,0.00,,---,0.00,VWS V14.01,2013-04-23 13:02:00,
2013-04-23 09:07:00,39.1,33.2,30.39,North,355,0.0,1.0,79,0.00,,---,0.00,VWS V14.01,2013-04-23 13:07:00,
2013-04-23 09:12:00,39.1,32.8,30.38,NW,309,0.0,2.0,78,0.00,,---,0.00,VWS V14.01,2013-04-23 13:12:00,
2013-04-23 09:18:00,39.1,32.8,30.38,North,350,0.0,2.0,78,0.00,,---,0.00,VWS V14.01,2013-04-23 13:18:00,
2013-04-23 09:24:00,39.2,32.9,30.39,North,360,0.0,2.0,78,0.00,,---,0.00,VWS V14.01,2013-04-23 13:24:00,
2013-04-23 09:30:00,39.3,33.3,30.38,NNE,15,0.0,2.0,79,0.00,,---,0.00,VWS V14.01,2013-04-23 13:30:00,
2013-04-23 09:35:00,39.3,33.7,30.38,NNW,338,0.0,1.0,80,0.00,,---,0.00,VWS V14.01,2013-04-23 13:35:00,
2013-04-23 09:40:00,39.5,33.8,30.38,NNW,342,1.0,5.0,80,0.00,,---,0.00,VWS V14.01,2013-04-23 13:40:00,
2013-04-23 09:45:00,39.5,33.8,30.38,NW,322,0.0,2.0,80,0.00,,---,0.00,VWS V14.01,2013-04-23 13:45:00,
2013-04-23 09:50:00,39.6,34.0,30.38,North,355,0.0,1.0,80,0.00,,---,0.00,VWS V14.01,2013-04-23 13:50:00,
2013-04-23 09:56:00,39.8,33.8,30.38,North,355,0.0,3.0,79,0.00,,---,0.00,VWS V14.01,2013-04-23 13:56:00,
2013-04-23 10:01:00,39.8,34.1,30.38,NNW,344,1.0,2.0,80,0.00,,---,0.00,VWS V14.01,2013-04-23 14:01:00,
2013-04-23 10:07:00,39.9,34.9,30.38,NW,306,0.0,2.0,82,0.00,,---,0.00,VWS V14.01,2013-04-23 14:07:00,
2013-04-23 10:12:00,39.9,34.9,30.38,West,274,0.0,0.0,82,0.00,,---,0.00,VWS V14.01,2013-04-23 14:12:00,
2013-04-23 10:18:00,39.9,35.2,30.38,NNW,341,0.0,0.0,83,0.00,,---,0.00,VWS V14.01,2013-04-23 14:18:00,
2013-04-23 10:23:00,39.9,35.2,30.38,NW,323,1.0,2.0,83,0.00,,---,0.00,VWS V14.01,2013-04-23 14:23:00,
2013-04-23 10:28:00,39.9,35.2,30.38,NNE,23,1.0,3.0,83,0.00,,---,0.00,VWS V14.01,2013-04-23 14:28:00,
2013-04-23 10:33:00,39.9,35.5,30.38,NNE,13,0.0,0.0,84,0.00,,---,0.00,VWS V14.01,2013-04-23 14:33:00,
2013-04-23 10:38:00,39.8,35.4,30.38,NNW,327,0.0,5.0,84,0.00,,---,0.00,VWS V14.01,2013-04-23 14:38:00,
2013-04-23 10:43:00,39.8,35.4,30.38,NNW,333,0.0,2.0,84,0.00,,---,0.00,VWS V14.01,2013-04-23 14:43:00,
2013-04-23 10:49:00,39.6,35.5,30.38,North,355,0.0,1.0,85,0.00,,---,0.00,VWS V14.01,2013-04-23 14:49:00,
2013-04-23 10:54:00,39.6,35.5,30.37,WNW,285,0.0,3.0,85,0.00,,---,0.00,VWS V14.01,2013-04-23 14:54:00,
2013-04-23 11:00:00,39.6,35.5,30.37,NNE,20,2.0,3.0,85,0.00,,---,0.00,VWS V14.01,2013-04-23 15:00:00,
2013-04-23 11:05:00,39.8,35.7,30.37,NNE,33,0.0,4.0,85,0.00,,---,0.00,VWS V14.01,2013-04-23 15:05:00,
2013-04-23 11:11:00,39.9,35.8,30.36,NW,320,2.0,4.0,85,0.00,,---,0.00,VWS V14.01,2013-04-23 15:11:00,
2013-04-23 11:16:00,40.1,35.7,30.36,WNW,292,0.0,4.0,84,0.00,,---,0.00,VWS V14.01,2013-04-23 15:16:00,
2013-04-23 11:21:00,40.1,35.4,30.36,NNE,21,1.0,4.0,83,0.00,,---,0.00,VWS V14.01,2013-04-23 15:21:00,
2013-04-23 11:26:00,40.2,35.5,30.36,NW,305,0.0,0.0,83,0.00,,---,0.00,VWS V14.01,2013-04-23 15:26:00,
2013-04-23 11:32:00,40.3,35.6,30.36,NNW,331,0.0,2.0,83,0.00,,---,0.00,VWS V14.01,2013-04-23 15:32:00,
2013-04-23 11:38:00,40.6,35.5,30.36,North,5,0.0,5.0,82,0.00,,---,0.00,VWS V14.01,2013-04-23 15:38:00,
2013-04-23 11:43:00,40.9,35.8,30.35,NW,313,0.0,0.0,82,0.00,,---,0.00,VWS V14.01,2013-04-23 15:43:00,
2013-04-23 11:48:00,41.2,35.8,30.35,North,360,1.0,3.0,81,0.00,,---,0.00,VWS V14.01,2013-04-23 15:48:00,
2013-04-23 11:53:00,41.3,35.6,30.35,North,351,1.0,3.0,80,0.00,,---,0.00,VWS V14.01,2013-04-23 15:53:00,
2013-04-23 11:58:00,41.5,35.5,30.34,ESE,115,0.0,0.0,79,0.00,,---,0.00,VWS V14.01,2013-04-23 15:58:00,
2013-04-23 12:04:00,41.9,35.9,30.34,NE,40,0.0,1.0,79,0.00,,---,0.00,VWS V14.01,2013-04-23 16:04:00,
2013-04-23 12:09:00,42.3,35.9,30.33,NW,321,0.0,2.0,78,0.00,,---,0.00,VWS V14.01,2013-04-23 16:09:00,
2013-04-23 12:14:00,42.6,35.6,30.33,North,5,0.0,4.0,76,0.00,,---,0.00,VWS V14.01,2013-04-23 16:14:00,
2013-04-23 12:20:00,42.8,35.8,30.33,NW,306,4.0,6.0,76,0.00,,---,0.00,VWS V14.01,2013-04-23 16:20:00,
2013-04-23 12:26:00,43.1,35.7,30.33,North,355,0.0,0.0,75,0.00,,---,0.00,VWS V14.01,2013-04-23 16:26:00,
2013-04-23 12:31:00,43.3,35.9,30.33,North,350,0.0,2.0,75,0.00,,---,0.00,VWS V14.01,2013-04-23 16:31:00,
2013-04-23 12:36:00,43.5,36.1,30.33,NNE,24,0.0,4.0,75,0.00,,---,0.00,VWS V14.01,2013-04-23 16:36:00,
2013-04-23 12:42:00,43.5,35.8,30.33,WNW,290,5.0,5.0,74,0.00,,---,0.00,VWS V14.01,2013-04-23 16:42:00,
2013-04-23 12:47:00,43.5,35.8,30.33,North,11,0.0,2.0,74,0.00,,---,0.00,VWS V14.01,2013-04-23 16:47:00,
2013-04-23 12:52:00,43.5,35.8,30.32,NNW,340,0.0,3.0,74,0.00,,---,0.00,VWS V14.01,2013-04-23 16:52:00,
2013-04-23 12:57:00,43.3,35.6,30.32,North,5,1.0,7.0,74,0.00,,---,0.00,VWS V14.01,2013-04-23 16:57:00,
2013-04-23 13:02:00,43.3,35.9,30.31,NNW,337,2.0,4.0,75,0.00,,---,0.00,VWS V14.01,2013-04-23 17:02:00,
2013-04-23 13:07:00,43.5,36.1,30.31,North,10,0.0,3.0,75,0.00,,---,0.00,VWS V14.01,2013-04-23 17:07:00,
2013-04-23 13:12:00,43.6,36.2,30.30,NW,314,1.0,1.0,75,0.00,,---,0.00,VWS V14.01,2013-04-23 17:12:00,
2013-04-23 13:17:00,43.8,36.4,30.30,WNW,288,1.0,3.0,75,0.00,,---,0.00,VWS V14.01,2013-04-23 17:17:00,
2013-04-23 13:22:00,43.9,36.2,30.30,NW,317,1.0,3.0,74,0.00,,---,0.00,VWS V14.01,2013-04-23 17:22:00,
2013-04-23 13:27:00,44.1,36.4,30.30,NNW,327,3.0,7.0,74,0.00,,---,0.00,VWS V14.01,2013-04-23 17:27:00,
2013-04-23 13:32:00,44.2,36.5,30.30,WNW,301,2.0,2.0,74,0.00,,---,0.00,VWS V14.01,2013-04-23 17:32:00,
2013-04-23 13:37:00,44.1,36.4,30.29,NNE,17,2.0,3.0,74,0.00,,---,0.00,VWS V14.01,2013-04-23 17:37:00,
2013-04-23 13:42:00,44.1,36.4,30.29,West,272,0.0,8.0,74,0.00,,---,0.00,VWS V14.01,2013-04-23 17:42:00,
2013-04-23 13:47:00,44.2,36.5,30.29,WNW,296,3.0,4.0,74,0.00,,---,0.00,VWS V14.01,2013-04-23 17:47:00,
2013-04-23 13:53:00,44.2,36.1,30.29,NNE,14,0.0,2.0,73,0.00,,---,0.00,VWS V14.01,2013-04-23 17:53:00,
2013-04-23 13:58:00,44.3,36.5,30.28,NNW,346,3.0,3.0,74,0.00,,---,0.00,VWS V14.01,2013-04-23 17:58:00,
2013-04-23 14:03:00,44.3,36.2,30.28,NNE,13,0.0,2.0,73,0.00,,---,0.00,VWS V14.01,2013-04-23 18:03:00,
2013-04-23 14:09:00,44.6,36.2,30.27,NNW,336,2.0,4.0,72,0.00,,---,0.00,VWS V14.01,2013-04-23 18:09:00,
2013-04-23 14:15:00,44.8,36.3,30.27,North,5,0.0,0.0,72,0.00,,---,0.00,VWS V14.01,2013-04-23 18:15:00,
2013-04-23 14:20:00,44.9,36.4,30.27,NNE,18,0.0,3.0,72,0.00,,---,0.00,VWS V14.01,2013-04-23 18:20:00,
2013-04-23 14:25:00,45.1,36.3,30.27,NNW,333,1.0,2.0,71,0.00,,---,0.00,VWS V14.01,2013-04-23 18:25:00,
2013-04-23 14:30:00,45.1,36.3,30.26,North,360,0.0,1.0,71,0.00,,---,0.00,VWS V14.01,2013-04-23 18:30:00,
2013-04-23 14:36:00,45.4,36.2,30.26,North,355,0.0,2.0,70,0.00,,---,0.00,VWS V14.01,2013-04-23 18:36:00,
2013-04-23 14:41:00,45.5,36.3,30.26,NW,320,0.0,3.0,70,0.00,,---,0.00,VWS V14.01,2013-04-23 18:41:00,
2013-04-23 14:46:00,45.8,36.6,30.26,NW,321,5.0,7.0,70,0.00,,---,0.00,VWS V14.01,2013-04-23 18:46:00,
2013-04-23 14:51:00,46.0,36.4,30.26,NNW,335,0.0,2.0,69,0.00,,---,0.00,VWS V14.01,2013-04-23 18:51:00,
2013-04-23 14:56:00,46.1,36.5,30.26,NNW,344,0.0,3.0,69,0.00,,---,0.00,VWS V14.01,2013-04-23 18:56:00,
2013-04-23 15:01:00,46.1,36.5,30.26,NW,324,0.0,3.0,69,0.00,,---,0.00,VWS V14.01,2013-04-23 19:01:00,
2013-04-23 15:06:00,46.2,37.0,30.25,North,360,0.0,4.0,70,0.00,,---,0.00,VWS V14.01,2013-04-23 19:06:00,
2013-04-23 15:11:00,46.4,36.8,30.25,West,271,0.0,0.0,69,0.00,,---,0.00,VWS V14.01,2013-04-23 19:11:00,
2013-04-23 15:17:00,46.7,37.1,30.25,NNW,330,3.0,3.0,69,0.00,,---,0.00,VWS V14.01,2013-04-23 19:17:00,
2013-04-23 15:22:00,46.7,36.7,30.25,NNE,16,2.0,6.0,68,0.00,,---,0.00,VWS V14.01,2013-04-23 19:22:00,
2013-04-23 15:27:00,46.7,37.1,30.25,NW,315,1.0,2.0,69,0.00,,---,0.00,VWS V14.01,2013-04-23 19:27:00,
2013-04-23 15:32:00,46.7,37.1,30.25,NW,319,0.0,4.0,69,0.00,,---,0.00,VWS V14.01,2013-04-23 19:32:00,
2013-04-23 15:37:00,46.8,37.2,30.25,NNE,13,2.0,5.0,69,0.00,,---,0.00,VWS V14.01,2013-04-23 19:37:00,
2013-04-23 15:42:00,46.8,37.2,30.25,WNW,283,0.0,0.0,69,0.00,,---,0.00,VWS V14.01,2013-04-23 19:42:00,
2013-04-23 15:47:00,46.8,37.2,30.24,NNE,24,0.0,4.0,69,0.00,,---,0.00,VWS V14.01,2013-04-23 19:47:00,
2013-04-23 15:52:00,46.7,37.1,30.24,NNE,22,0.0,3.0,69,0.00,,---,0.00,VWS V14.01,2013-04-23 19:52:00,
2013-04-23 15:57:00,46.7,37.1,30.24,North,5,3.0,4.0,69,0.00,,---,0.00,VWS V14.01,2013-04-23 19:57:00,
2013-04-23 16:03:00,46.5,36.9,30.24,NE,34,0.0,5.0,69,0.00,,---,0.00,VWS V14.01,2013-04-23 20:03:00,
2013-04-23 16:08:00,46.5,37.3,30.24,North,355,3.0,5.0,70,0.00,,---,0.00,VWS V14.01,2013-04-23 20:08:00,
2013-04-23 16:13:00,46.7,37.1,30.24,NNE,20,0.0,2.0,69,0.00,,---,0.00,VWS V14.01,2013-04-23 20:13:00,
2013-04-23 16:18:00,46.8,37.2,30.24,North,5,3.0,5.0,69,0.00,,---,0.00,VWS V14.01,2013-04-23 20:18:00,
2013-04-23 16:23:00,46.8,37.2,30.24,NW,311,0.0,4.0,69,0.00,,---,0.00,VWS V14.01,2013-04-23 20:23:00,
2013-04-23 16:28:00,47.0,37.4,30.24,NW,307,5.0,5.0,69,0.00,,---,0.00,VWS V14.01,2013-04-23 20:28:00,
2013-04-23 16:33:00,46.8,37.2,30.24,North,5,1.0,3.0,69,0.00,,---,0.00,VWS V14.01,2013-04-23 20:33:00,
2013-04-23 16:38:00,46.7,37.1,30.24,West,273,2.0,2.0,69,0.00,,---,0.00,VWS V14.01,2013-04-23 20:38:00,
2013-04-23 16:43:00,46.7,37.1,30.23,NNW,327,1.0,3.0,69,0.00,,---,0.00,VWS V14.01,2013-04-23 20:43:00,
2013-04-23 16:48:00,46.8,37.5,30.23,NNW,338,1.0,5.0,70,0.00,,---,0.00,VWS V14.01,2013-04-23 20:48:00,
2013-04-23 16:53:00,47.0,37.0,30.23,NNW,338,3.0,7.0,68,0.00,,---,0.00,VWS V14.01,2013-04-23 20:53:00,
2013-04-23 16:59:00,46.8,36.8,30.23,NW,317,0.0,4.0,68,0.00,,---,0.00,VWS V14.01,2013-04-23 20:59:00,
2013-04-23 17:04:00,46.8,37.2,30.23,NNW,346,0.0,2.0,69,0.00,,---,0.00,VWS V14.01,2013-04-23 21:04:00,
2013-04-23 17:09:00,47.0,37.4,30.22,NW,319,0.0,1.0,69,0.00,,---,0.00,VWS V14.01,2013-04-23 21:09:00,
2013-04-23 17:14:00,47.0,37.4,30.23,NW,319,4.0,4.0,69,0.00,,---,0.00,VWS V14.01,2013-04-23 21:14:00,
2013-04-23 17:19:00,47.0,37.4,30.22,NNW,337,0.0,2.0,69,0.00,,---,0.00,VWS V14.01,2013-04-23 21:19:00,
2013-04-23 17:24:00,46.8,37.2,30.22,NNW,338,4.0,5.0,69,0.00,,---,0.00,VWS V14.01,2013-04-23 21:24:00,
2013-04-23 17:29:00,46.7,37.1,30.22,NNW,341,4.0,7.0,69,0.00,,---,0.00,VWS V14.01,2013-04-23 21:29:00,
2013-04-23 17:35:00,46.4,37.2,30.22,NNW,342,4.0,4.0,70,0.00,,---,0.00,VWS V14.01,2013-04-23 21:35:00,
2013-04-23 17:41:00,46.2,37.0,30.22,NNW,341,5.0,10.0,70,0.00,,---,0.00,VWS V14.01,2013-04-23 21:41:00,
2013-04-23 17:46:00,46.1,37.2,30.21,WNW,302,0.0,3.0,71,0.00,,---,0.00,VWS V14.01,2013-04-23 21:46:00,
2013-04-23 17:52:00,46.1,37.2,30.21,NNW,346,0.0,6.0,71,0.00,,---,0.00,VWS V14.01,2013-04-23 21:52:00,
2013-04-23 17:58:00,46.0,37.1,30.22,NNW,342,4.0,5.0,71,0.00,,---,0.00,VWS V14.01,2013-04-23 21:58:00,
2013-04-23 18:03:00,45.8,37.0,30.21,North,351,0.0,6.0,71,0.00,,---,0.00,VWS V14.01,2013-04-23 22:03:00,
2013-04-23 18:08:00,45.8,37.0,30.21,NNW,334,3.0,3.0,71,0.00,,---,0.00,VWS V14.01,2013-04-23 22:08:00,
2013-04-23 18:14:00,46.0,37.1,30.21,NNW,344,0.0,1.0,71,0.00,,---,0.00,VWS V14.01,2013-04-23 22:14:00,
2013-04-23 18:19:00,46.0,37.1,30.21,NNW,331,0.0,3.0,71,0.00,,---,0.00,VWS V14.01,2013-04-23 22:19:00,
2013-04-23 18:24:00,46.0,37.1,30.21,NW,325,1.0,4.0,71,0.00,,---,0.00,VWS V14.01,2013-04-23 22:24:00,
2013-04-23 18:29:00,46.0,37.1,30.20,North,355,2.0,2.0,71,0.00,,---,0.00,VWS V14.01,2013-04-23 22:29:00,
2013-04-23 18:34:00,46.0,37.1,30.20,NNW,345,1.0,1.0,71,0.00,,---,0.00,VWS V14.01,2013-04-23 22:34:00,
2013-04-23 18:39:00,46.0,37.1,30.20,North,355,1.0,3.0,71,0.00,,---,0.00,VWS V14.01,2013-04-23 22:39:00,
2013-04-23 18:44:00,46.0,37.1,30.20,North,11,1.0,6.0,71,0.00,,---,0.00,VWS V14.01,2013-04-23 22:44:00,
2013-04-23 18:49:00,45.8,37.0,30.20,North,5,3.0,8.0,71,0.00,,---,0.00,VWS V14.01,2013-04-23 22:49:00,
2013-04-23 18:54:00,45.7,36.8,30.19,NW,311,0.0,5.0,71,0.00,,---,0.00,VWS V14.01,2013-04-23 22:54:00,
2013-04-23 18:59:00,45.5,37.0,30.20,West,262,0.0,2.0,72,0.00,,---,0.00,VWS V14.01,2013-04-23 22:59:00,
2013-04-23 19:04:00,45.5,37.0,30.20,NNW,344,1.0,4.0,72,0.00,,---,0.00,VWS V14.01,2013-04-23 23:04:00,
2013-04-23 19:09:00,45.7,37.2,30.19,WNW,292,0.0,2.0,72,0.00,,---,0.00,VWS V14.01,2013-04-23 23:09:00,
2013-04-23 19:14:00,45.8,37.0,30.19,North,9,2.0,3.0,71,0.00,,---,0.00,VWS V14.01,2013-04-23 23:14:00,
2013-04-23 19:20:00,45.8,37.0,30.18,NW,317,0.0,2.0,71,0.00,,---,0.00,VWS V14.01,2013-04-23 23:20:00,
2013-04-23 19:25:00,45.7,36.8,30.18,North,355,0.0,3.0,71,0.00,,---,0.00,VWS V14.01,2013-04-23 23:25:00,
2013-04-23 19:31:00,45.2,36.7,30.17,NNW,342,0.0,2.0,72,0.00,,---,0.00,VWS V14.01,2013-04-23 23:31:00,
2013-04-23 19:36:00,44.9,36.8,30.17,NNE,26,3.0,6.0,73,0.00,,---,0.00,VWS V14.01,2013-04-23 23:36:00,
2013-04-23 19:41:00,44.6,36.5,30.18,NNW,342,0.0,2.0,73,0.00,,---,0.00,VWS V14.01,2013-04-23 23:41:00,
2013-04-23 19:46:00,44.5,36.7,30.18,NNW,340,0.0,2.0,74,0.00,,---,0.00,VWS V14.01,2013-04-23 23:46:00,
2013-04-23 19:51:00,44.3,36.5,30.18,NW,322,3.0,3.0,74,0.00,,---,0.00,VWS V14.01,2013-04-23 23:51:00,
2013-04-23 19:56:00,44.2,36.5,30.17,NW,313,0.0,3.0,74,0.00,,---,0.00,VWS V14.01,2013-04-23 23:56:00,
2013-04-23 20:01:00,43.9,36.5,30.18,North,360,0.0,0.0,75,0.00,,---,0.00,VWS V14.01,2013-04-24 00:01:00,
2013-04-23 20:06:00,43.8,36.4,30.18,NNW,340,3.0,6.0,75,0.00,,---,0.00,VWS V14.01,2013-04-24 00:06:00,
2013-04-23 20:12:00,43.6,36.2,30.18,NNW,334,3.0,6.0,75,0.00,,---,0.00,VWS V14.01,2013-04-24 00:12:00,
2013-04-23 20:18:00,43.5,36.5,30.18,WNW,296,3.0,3.0,76,0.00,,---,0.00,VWS V14.01,2013-04-24 00:18:00,
2013-04-23 20:23:00,43.5,36.5,30.18,NNW,347,1.0,3.0,76,0.00,,---,0.00,VWS V14.01,2013-04-24 00:23:00,
2013-04-23 20:28:00,43.3,36.3,30.18,North,10,0.0,5.0,76,0.00,,---,0.00,VWS V14.01,2013-04-24 00:28:00,
2013-04-23 20:34:00,43.3,36.3,30.18,NW,320,0.0,3.0,76,0.00,,---,0.00,VWS V14.01,2013-04-24 00:34:00,
2013-04-23 20:39:00,43.2,36.5,30.18,NNW,336,2.0,3.0,77,0.00,,---,0.00,VWS V14.01,2013-04-24 00:39:00,
2013-04-23 20:44:00,43.2,36.5,30.18,NNW,348,2.0,3.0,77,0.00,,---,0.00,VWS V14.01,2013-04-24 00:44:00,
2013-04-23 20:49:00,43.1,36.4,30.17,North,360,0.0,4.0,77,0.00,,---,0.00,VWS V14.01,2013-04-24 00:49:00,
2013-04-23 20:55:00,43.1,36.4,30.17,NW,306,2.0,4.0,77,0.00,,---,0.00,VWS V14.01,2013-04-24 00:55:00,
2013-04-23 21:00:00,43.1,36.4,30.17,NW,306,7.0,7.0,77,0.00,,---,0.00,VWS V14.01,2013-04-24 01:00:00,
2013-04-23 21:06:00,43.1,36.4,30.16,WNW,303,3.0,7.0,77,0.00,,---,0.00,VWS V14.01,2013-04-24 01:06:00,
2013-04-23 21:11:00,42.9,36.2,30.16,NNW,334,0.0,3.0,77,0.00,,---,0.00,VWS V14.01,2013-04-24 01:11:00,
2013-04-23 21:17:00,42.8,36.4,30.16,NNW,331,2.0,3.0,78,0.00,,---,0.00,VWS V14.01,2013-04-24 01:17:00,
2013-04-23 21:22:00,42.6,36.2,30.15,WNW,300,1.0,3.0,78,0.00,,---,0.00,VWS V14.01,2013-04-24 01:22:00,
2013-04-23 21:28:00,42.6,36.2,30.16,North,350,0.0,1.0,78,0.00,,---,0.00,VWS V14.01,2013-04-24 01:28:00,
2013-04-23 21:33:00,42.5,36.5,30.15,NNE,17,4.0,4.0,79,0.00,,---,0.00,VWS V14.01,2013-04-24 01:33:00,
2013-04-23 21:38:00,42.5,36.5,30.14,NNW,346,0.0,1.0,79,0.00,,---,0.00,VWS V14.01,2013-04-24 01:38:00,
2013-04-23 21:43:00,42.3,36.3,30.14,NNW,336,0.0,1.0,79,0.00,,---,0.00,VWS V14.01,2013-04-24 01:43:00,
2013-04-23 21:48:00,42.3,36.3,30.14,NW,311,2.0,2.0,79,0.00,,---,0.00,VWS V14.01,2013-04-24 01:48:00,
2013-04-23 21:53:00,42.2,36.2,30.14,NNE,26,3.0,3.0,79,0.00,,---,0.00,VWS V14.01,2013-04-24 01:53:00,
2013-04-23 21:58:00,42.1,36.4,30.14,NNW,331,3.0,4.0,80,0.00,,---,0.00,VWS V14.01,2013-04-24 01:58:00,
2013-04-23 22:03:00,42.1,36.4,30.14,NNW,333,0.0,3.0,80,0.00,,---,0.00,VWS V14.01,2013-04-24 02:03:00,
2013-04-23 22:08:00,41.9,36.2,30.14,North,355,0.0,2.0,80,0.00,,---,0.00,VWS V14.01,2013-04-24 02:08:00,
2013-04-23 22:13:00,41.9,36.2,30.14,NW,309,0.0,2.0,80,0.00,,---,0.00,VWS V14.01,2013-04-24 02:13:00,
2013-04-23 22:19:00,41.9,36.5,30.13,NW,311,1.0,3.0,81,0.00,,---,0.00,VWS V14.01,2013-04-24 02:19:00,
2013-04-23 22:24:00,41.8,36.4,30.13,NNW,338,4.0,5.0,81,0.00,,---,0.00,VWS V14.01,2013-04-24 02:24:00,
2013-04-23 22:29:00,41.8,36.4,30.12,North,10,0.0,3.0,81,0.00,,---,0.00,VWS V14.01,2013-04-24 02:29:00,
2013-04-23 22:35:00,41.8,36.4,30.12,NNW,339,2.0,4.0,81,0.00,,---,0.00,VWS V14.01,2013-04-24 02:35:00,
2013-04-23 22:40:00,41.8,36.4,30.12,North,350,0.0,1.0,81,0.00,,---,0.00,VWS V14.01,2013-04-24 02:40:00,
2013-04-23 22:45:00,41.6,36.5,30.12,NNW,345,1.0,3.0,82,0.00,,---,0.00,VWS V14.01,2013-04-24 02:45:00,
2013-04-23 22:50:00,41.8,36.7,30.12,NNW,339,3.0,3.0,82,0.00,,---,0.00,VWS V14.01,2013-04-24 02:50:00,
2013-04-23 22:55:00,41.8,36.7,30.12,NNW,348,4.0,4.0,82,0.00,,---,0.00,VWS V14.01,2013-04-24 02:55:00,
2013-04-23 23:00:00,41.9,36.8,30.11,NNE,13,1.0,5.0,82,0.00,,---,0.00,VWS V14.01,2013-04-24 03:00:00,
2013-04-23 23:05:00,41.9,36.8,30.11,NW,307,0.0,1.0,82,0.00,,---,0.00,VWS V14.01,2013-04-24 03:05:00,
2013-04-23 23:10:00,41.9,36.8,30.12,NW,313,2.0,3.0,82,0.00,,---,0.00,VWS V14.01,2013-04-24 03:10:00,
2013-04-23 23:15:00,41.9,36.8,30.12,North,355,0.0,2.0,82,0.00,,---,0.00,VWS V14.01,2013-04-24 03:15:00,
2013-04-23 23:20:00,41.9,36.8,30.11,North,355,0.0,3.0,82,0.00,,---,0.00,VWS V14.01,2013-04-24 03:20:00,
2013-04-23 23:25:00,41.9,36.8,30.11,NNW,346,1.0,4.0,82,0.00,,---,0.00,VWS V14.01,2013-04-24 03:25:00,
2013-04-23 23:31:00,41.9,36.8,30.11,NW,317,1.0,2.0,82,0.00,,---,0.00,VWS V14.01,2013-04-24 03:31:00,
2013-04-23 23:36:00,42.1,37.0,30.11,North,5,2.0,3.0,82,0.00,,---,0.00,VWS V14.01,2013-04-24 03:36:00,
2013-04-23 23:41:00,42.1,37.0,30.11,NW,326,0.0,3.0,82,0.00,,---,0.00,VWS V14.01,2013-04-24 03:41:00,
2013-04-23 23:46:00,42.1,37.0,30.11,NNW,344,0.0,0.0,82,0.00,,---,0.00,VWS V14.01,2013-04-24 03:46:00,
2013-04-23 23:53:00,42.1,37.0,30.11,WNW,292,0.0,2.0,82,0.00,,---,0.00,VWS V14.01,2013-04-24 03:53:00,
2013-04-23 23:58:00,42.1,37.0,30.10,NW,309,2.0,6.0,82,0.00,,---,0.00,VWS V14.01,2013-04-24 03:58:00,